Temperature
18 17 16 16 16 16 16 16 16 16 16 16 15 15 15 15 15 15 15 14 14 14 14 14 13 13 14 13 13 13 13 13 13 12 12 12 12 12 12 12 12 12 12
20 17 16 16 16 16 16 16 15 15 15 15 15 15 15 15 15 14 14 13 13 13 13 13 13 13 13 13 12 12 12 12 12 12 12 12 11 11 11 12 12 11 11
19 17 16 16 16 16 15 15 15 15 15 15 14 14 14 14 14 13 13 13 13 13 13 13 13 13 13 12 12 12 12 12 12 12 12 11 11 11 11 11 11 11 11
19 17 16 16 15 15 15 15 15 15 14 14 14 14 14 13 13 13 13 13 13 13 13 13 13 13 12 12 12 11 12 12 12 11 11 11 11 11 11 11 11 11 11
18 17 16 15 15 15 15 15 15 14 14 14 14 14 13 13 13 12 12 12 12 12 13 13 13 13 12 12 11 11 11 11 11 11 11 11 10 10 10 11 11 11 11
18 17 16 15 15 15 15 15 15 14 14 13 13 13 13 12 12 12 12 12 12 12 12 13 12 12 12 12 11 11 11 11 11 11 11 10 10 10 10 10 10 10 10
18 17 16 15 15 15 15 14 14 14 14 13 13 12 12 12 12 12 12 12 12 12 12 12 12 12 12 12 11 11 11 11 11 11 10 10 10 10 10 10 10 10 10
18 16 15 15 15 15 14 14 14 14 13 13 12 12 12 12 12 12 12 12 12 12 12 12 12 12 12 11 11 11 11 11 10 10 10 10 10 10 10 10 10 10 10
17 16 15 14 14 14 14 14 14 13 13 13 12 12 12 12 12 12 12 11 11 11 12 12 12 12 11 11 11 11 10 10 10 10 10 10 10 9 9 10 10 10 10
16 15 15 14 14 14 14 13 13 13 13 12 12 12 12 12 12 12 12 11 11 11 11 12 12 11 11 11 10 10 10 10 10 10 10 10 9 9 9 9 9 9 9
15 15 15 14 14 14 14 13 13 12 12 12 12 12 12 12 12 12 11 11 11 11 11 11 11 11 11 10 10 10 10 10 10 10 10 9 9 9 9 9 9 9 9
14 14 14 14 14 14 13 13 13 12 12 12 12 12 12 12 12 11 11 11 11 11 11 11 11 11 11 10 10 10 10 10 10 10 10 10 9 9 9 9 9 9 8
15 14 14 14 14 13 13 13 12 12 12 12 12 12 12 11 11 11 11 11 11 11 11 11 11 11 10 10 10 10 10 10 10 10 10 9 9 9 9 9 9 9 8
15 14 14 14 14 13 13 13 13 12 12 12 12 12 12 12 11 11 11 11 11 11 11 11 11 10 10 10 10 10 10 10 10 10 10 10 9 9 9 9 8 8 8
15 14 14 14 14 13 13 13 13 13 12 12 12 12 12 12 11 11 11 11 11 11 11 11 10 10 10 10 10 10 10 10 10 10 10 10 9 9 9 9 8 8 8
15 15 14 14 14 13 13 13 13 13 12 12 12 12 12 12 12 11 11 11 11 11 11 10 10 10 10 10 10 10 10 10 10 10 10 10 10 9 9 9 9 8 8
16 15 15 14 14 14 13 13 13 13 12 12 12 12 12 12 11 11 11 11 11 11 10 10 10 10 10 10 10 10 10 10 10 10 10 10 10 9 9 9 9 8 8
16 15 15 14 14 14 14 13 13 13 13 12 12 12 12 11 11 11 11 11 11 10 10 10 10 10 10 10 10 10 10 10 10 10 10 10 9 9 9 9 9 9 8
16 16 15 14 14 14 14 13 13 13 13 12 12 12 12 11 11 11 11 11 11 10 10 10 10 10 10 10 10 10 10 10 10 10 10 10 9 9 9 9 9 9 9
16 16 15 15 14 14 14 13 13 13 13 12 12 12 12 11 11 11 11 11 11 10 10 10 10 10 10 10 10 9 9 9 9 10 9 9 9 9 9 9 9 9 8
16 16 15 15 14 14 13 13 13 13 13 12 12 12 12 12 11 11 11 11 11 10 10 10 10 10 9 9 9 9 9 9 9 9 9 9 9 9 9 9 9 9 8
16 16 16 15 15 14 14 14 14 14 13 13 12 12 12 12 12 11 11 11 11 10 10 10 10 10 10 9 9 9 9 9 9 9 9 9 9 9 9 9 8 8 8
16 16 16 16 15 15 15 14 13 12 12 12 12 12 12 12 12 12 12 11 11 11 11 10 10 10 10 10 9 9 10 10 10 10 10 9 9 9 9 9 8 8 8
17 17 17 16 16 16 15 14 13 13 13 13 13 13 12 12 12 12 12 11 11 11 11 11 10 10 10 10 9 9 10 10 10 9 9 9 9 9 9 8 8 8 8
17 17 17 17 16 16 15 14 14 14 14 14 13 13 12 12 12 12 12 11 11 11 11 11 10 10 10 10 10 10 9 9 9 9 9 10 9 9 9 8 8 8 7
17 17 17 16 16 16 15 15 14 14 14 13 13 13 12 12 12 12 12 11 11 11 11 11 11 10 10 10 10 10 10 9 9 9 9 9 9 9 9 8 8 8 7
Wind_Speed
11 16 27 26 25 25 24 24 23 22 22 21 20 20 20 19 19 19 19 18 19 18 19 18 18 18 19 19 19 19 19 19 19 18 18 17 17 17 16 16 15 14 16
17 22 28 27 26 26 25 24 23 22 22 21 20 20 20 19 19 19 19 18 18 18 18 18 18 18 18 18 18 18 17 18 18 17 17 15 15 16 15 15 15 14 15
20 22 27 27 27 26 25 24 23 23 22 21 21 20 20 20 19 19 18 18 18 18 18 18 18 17 17 17 17 17 17 18 18 17 15 13 13 14 15 14 14 15 15
20 22 25 27 27 27 26 25 24 23 22 22 21 21 20 20 19 19 19 18 18 18 18 17 17 17 16 16 16 16 17 18 17 15 13 12 11 14 14 14 14 14 14
18 21 25 28 27 27 26 25 24 23 22 22 21 21 20 20 19 19 18 18 18 18 17 17 16 16 15 15 15 16 17 18 16 15 13 12 11 13 14 14 14 15 15
17 19 25 28 28 27 26 25 25 24 23 22 22 21 21 20 19 19 18 18 18 17 17 16 15 15 14 14 15 16 17 17 15 14 12 10 10 13 14 14 15 16 16
17 17 25 28 28 27 26 26 25 24 24 23 22 21 21 20 20 19 18 18 17 17 16 15 15 14 14 14 15 15 16 15 15 13 11 9 10 12 13 14 14 14 15
18 16 23 28 27 27 26 26 25 24 24 23 22 21 21 21 20 19 18 17 17 16 16 15 14 13 13 13 14 14 14 13 13 11 10 9 11 13 13 14 14 14 14
16 15 16 22 24 26 26 25 25 24 24 23 22 22 21 21 20 19 17 17 16 16 15 14 13 13 13 12 12 13 14 14 13 10 8 8 12 13 13 14 14 14 14
14 13 12 15 19 20 23 25 25 24 23 23 22 21 21 20 19 18 17 16 16 15 14 13 12 12 12 11 12 14 14 13 12 10 8 8 11 12 12 12 13 13 13
16 13 13 13 14 17 19 23 23 23 23 23 22 22 20 17 17 16 16 16 15 14 14 13 12 11 9 9 10 12 11 11 10 9 7 8 10 11 11 12 12 12 12
20 17 15 14 14 15 17 18 18 19 20 19 19 19 17 16 15 15 16 15 15 14 13 12 11 9 7 6 8 10 10 10 9 7 7 8 9 10 10 11 11 11 11
22 20 18 16 15 14 11 13 12 14 15 17 19 19 17 15 14 13 12 12 13 12 10 10 8 7 5 5 6 8 10 9 8 7 7 7 8 9 9 9 9 10 10
21 20 18 17 16 13 12 11 11 10 11 12 17 19 16 10 9 10 9 10 10 10 8 7 6 5 4 5 7 8 9 9 8 7 7 7 7 7 7 8 8 8 9
22 21 20 19 18 15 12 11 11 10 11 14 16 18 17 10 7 8 9 10 10 10 9 7 6 5 4 5 7 8 8 9 8 8 7 7 6 6 6 6 7 7 7
22 22 21 21 19 16 14 12 11 11 13 14 15 17 19 15 11 9 7 8 9 10 10 9 7 5 4 5 5 7 8 9 8 8 7 6 6 5 5 5 5 5 5
22 22 22 22 20 19 16 14 12 12 14 12 14 18 19 17 15 12 7 6 9 12 11 8 6 5 4 4 4 5 6 7 8 8 7 6 5 5 4 4 3 3 3
20 21 22 21 21 20 17 14 12 12 13 12 15 17 19 19 18 13 8 7 11 11 9 5 4 4 3 3 3 2 3 5 6 7 7 6 6 5 4 3 2 1 1
21 22 23 21 22 20 18 14 12 12 12 12 15 15 18 20 20 14 9 9 13 9 6 6 4 4 4 4 3 2 2 2 4 6 6 7 7 6 5 4 3 1 1
20 21 22 21 21 19 15 12 11 11 11 11 12 15 18 19 19 15 10 10 12 7 6 5 5 4 4 4 3 2 1 1 2 4 5 6 7 8 7 5 4 3 3
19 21 23 21 21 18 16 15 15 14 13 12 11 15 19 18 19 14 8 9 9 8 8 8 5 5 3 3 3 2 3 2 1 2 3 4 6 8 8 7 7 6 5
22 23 24 24 23 22 18 16 13 11 9 10 9 12 18 18 18 15 11 10 9 8 9 8 6 5 3 4 4 3 0 3 3 2 2 4 4 5 6 8 8 8 7
22 24 23 25 24 23 18 12 10 8 6 7 11 12 14 18 18 15 13 11 10 10 10 9 9 8 5 4 3 4 4 4 3 2 3 3 4 3 4 7 8 9 9
22 22 23 25 24 23 20 18 19 16 14 13 13 11 12 15 16 17 15 13 12 10 10 10 9 6 7 5 3 2 3 4 3 2 3 2 3 4 4 4 6 8 9
22 22 22 23 24 23 22 22 21 16 13 8 9 12 12 12 14 15 15 13 13 11 11 11 9 8 7 6 5 3 2 1 2 3 3 3 3 4 4 4 5 7 8
19 20 20 22 23 24 24 23 23 21 16 14 13 14 13 10 11 14 14 13 12 11 12 11 11 11 9 7 6 5 4 4 4 4 4 3 3 3 3 3 4 6 7
Wind_Direction
171 170 165 160 155 150 147 144 140 135 132 130 126 124 122 121 119 116 113 111 107 104 101 99 98 97 96 95 93 90 87 85 83 79 76 77 77 75 72 70 66 61 61
157 166 163 160 156 152 148 145 141 138 135 133 130 128 127 125 123 120 117 114 110 107 104 102 100 99 98 97 95 90 88 88 83 78 72 69 73 74 72 70 67 66 64
155 162 161 159 156 153 150 146 143 140 138 135 133 132 130 128 126 124 120 116 112 109 106 104 101 101 100 98 93 89 89 92 86 78 68 56 63 71 72 69 66 64 63
155 160 159 159 156 153 150 148 145 142 140 138 137 135 132 130 128 125 122 117 114 111 108 106 104 104 103 99 93 89 92 93 88 78 62 52 55 69 69 67 64 62 63
156 159 160 159 157 154 151 150 147 145 143 141 140 138 135 132 130 127 124 121 117 114 111 108 106 106 105 101 94 93 95 93 89 76 63 53 53 70 70 68 66 65 65
155 157 161 161 159 156 153 152 150 148 146 144 142 141 138 135 132 129 126 123 121 118 115 112 110 108 107 102 95 95 97 95 87 74 64 56 57 72 73 71 67 64 62
154 157 162 162 160 158 156 154 152 150 149 147 145 144 140 137 134 130 129 127 125 123 119 116 114 111 110 103 96 96 98 96 87 74 62 57 69 75 76 71 68 64 61
154 157 163 163 161 159 157 155 153 152 151 150 149 147 143 139 137 135 134 132 130 127 123 120 118 115 113 105 98 98 101 98 91 76 62 61 79 80 77 72 69 66 63
153 156 161 163 161 160 159 157 156 155 154 153 152 149 145 143 143 141 139 136 134 131 128 124 121 119 115 106 99 100 104 102 95 81 67 67 82 80 77 74 70 67 64
154 158 158 158 160 160 160 159 157 157 156 156 153 149 147 147 146 145 144 141 137 134 132 129 125 122 116 105 99 103 107 102 96 85 73 79 85 83 80 76 71 67 65
162 163 160 157 157 157 158 160 159 159 159 155 152 149 146 145 145 146 147 145 144 141 138 135 132 127 116 103 100 105 108 105 98 86 78 87 87 85 83 77 72 70 68
171 170 167 162 160 158 161 160 159 159 159 154 152 148 145 144 145 148 151 151 148 144 143 141 139 131 116 97 97 105 115 110 99 90 89 95 92 90 84 79 76 71 69
173 172 171 167 163 162 160 160 159 157 156 154 152 150 148 146 148 150 151 153 149 146 143 142 137 132 124 113 106 113 123 115 107 98 98 99 99 94 88 82 77 72 69
173 175 173 169 167 165 162 163 160 160 161 160 160 157 154 152 152 153 151 152 151 150 147 145 148 148 138 130 125 122 126 125 121 112 105 104 105 99 95 87 81 77 71
176 177 175 173 172 169 164 168 167 166 168 166 165 165 162 160 161 160 160 160 161 161 159 157 158 154 146 137 133 131 133 135 134 124 114 109 108 105 102 94 85 80 72
179 178 176 176 175 172 172 173 171 171 171 170 171 171 167 167 167 165 164 167 172 174 171 166 166 160 153 137 127 132 138 143 143 137 129 123 118 116 111 101 90 81 73
182 179 178 179 177 176 175 175 175 175 173 175 177 175 173 172 171 169 168 171 180 179 171 162 160 150 134 123 122 132 138 147 150 150 146 138 128 123 123 115 103 87 72
181 180 180 180 180 179 178 177 176 177 177 180 179 180 178 176 174 171 171 177 181 173 163 153 151 142 132 130 132 137 137 144 155 161 159 157 152 147 147 149 145 109 69
183 181 181 181 181 181 178 177 176 177 179 182 180 181 182 179 178 174 174 178 175 167 162 163 155 147 143 143 140 133 139 145 158 165 168 176 177 174 173 175 175 196 253
186 184 183 182 181 179 176 174 174 177 182 183 183 184 182 182 180 176 174 175 171 164 166 162 154 145 146 147 125 95 57 176 163 173 180 185 191 192 191 191 196 218 241
188 186 185 184 182 178 180 180 181 186 186 187 187 185 183 183 181 178 175 173 172 174 173 163 150 146 143 132 102 52 355 343 253 215 189 185 198 203 203 205 208 217 233
192 189 188 187 184 184 186 186 185 179 181 183 182 185 185 184 183 183 177 179 176 172 170 169 154 148 157 157 138 123 322 320 303 253 220 212 214 207 210 214 213 217 226
195 193 191 190 187 188 184 175 163 157 156 175 187 190 190 187 186 185 183 179 179 178 182 180 170 160 169 189 166 151 163 218 257 295 249 229 221 218 221 219 219 223 226
198 195 193 191 189 188 182 179 178 182 187 193 189 188 187 188 187 187 184 182 183 184 183 185 180 170 163 179 192 186 168 156 166 247 293 266 239 230 228 222 222 225 228
197 195 194 192 191 188 186 185 186 191 193 178 173 179 186 190 190 188 186 186 187 188 187 185 181 180 176 176 175 166 157 138 147 170 240 276 281 253 234 225 221 225 229
197 193 192 191 192 190 189 189 190 192 185 175 180 186 190 191 193 192 190 191 191 191 190 189 187 186 189 183 182 174 168 169 183 176 209 233 249 268 252 234 224 224 228
Height
1487 1492 1497 1500 1504 1507 1509 1512 1514 1515 1517 1519 1520 1521 1523 1524 1525 1526 1527 1527 1528 1529 1530 1530 1531 1531 1532 1532 1532 1533 1533 1533 1533 1533 1533 1533 1533 1532 1532 1531 1531 1530 1530
1483 1489 1495 1499 1502 1506 1509 1511 1513 1515 1517 1518 1520 1521 1522 1524 1525 1526 1527 1528 1529 1530 1530 1531 1531 1532 1532 1533 1533 1533 1534 1534 1534 1534 1534 1534 1534 1534 1533 1533 1532 1532 1531
1483 1488 1493 1497 1501 1505 1507 1510 1512 1514 1516 1518 1519 1521 1522 1524 1525 1526 1527 1528 1529 1530 1531 1531 1532 1532 1533 1534 1534 1534 1534 1534 1535 1535 1535 1535 1535 1535 1534 1534 1533 1533 1532
1483 1487 1491 1496 1500 1503 1506 1509 1511 1513 1516 1517 1519 1521 1522 1524 1525 1526 1527 1528 1529 1530 1531 1532 1532 1533 1534 1534 1535 1535 1535 1535 1536 1536 1536 1536 1536 1536 1535 1535 1535 1534 1533
1483 1487 1491 1495 1499 1502 1505 1508 1510 1513 1515 1517 1519 1520 1522 1524 1525 1527 1527 1528 1529 1530 1531 1532 1533 1534 1534 1535 1535 1536 1536 1536 1537 1537 1537 1537 1537 1537 1536 1536 1536 1535 1534
1482 1486 1490 1494 1498 1502 1504 1507 1510 1512 1514 1516 1518 1520 1522 1524 1525 1527 1528 1529 1530 1531 1532 1533 1534 1535 1535 1536 1536 1537 1537 1537 1538 1538 1538 1538 1538 1538 1537 1537 1537 1536 1535
1480 1485 1489 1494 1498 1501 1504 1506 1509 1511 1514 1516 1518 1520 1522 1523 1525 1527 1528 1529 1530 1531 1532 1534 1535 1535 1536 1537 1537 1537 1538 1538 1539 1539 1539 1539 1539 1539 1539 1538 1538 1537 1536
1479 1484 1489 1493 1497 1500 1503 1506 1508 1511 1513 1515 1518 1520 1521 1523 1525 1526 1528 1529 1531 1532 1533 1534 1535 1536 1537 1537 1538 1538 1539 1539 1540 1540 1540 1540 1540 1540 1539 1539 1539 1538 1537
1479 1483 1487 1492 1496 1499 1502 1505 1507 1510 1512 1515 1517 1519 1521 1523 1525 1526 1528 1530 1531 1532 1533 1535 1536 1537 1537 1538 1538 1539 1540 1540 1541 1541 1541 1541 1541 1541 1540 1540 1539 1539 1538
1479 1483 1486 1490 1494 1498 1501 1504 1507 1509 1512 1514 1516 1518 1520 1522 1525 1526 1528 1530 1531 1533 1534 1535 1536 1537 1538 1539 1539 1540 1541 1541 1541 1542 1542 1542 1542 1542 1541 1541 1540 1539 1539
1479 1482 1485 1489 1492 1496 1500 1503 1506 1508 1511 1513 1516 1518 1520 1522 1524 1526 1528 1530 1531 1533 1534 1535 1537 1538 1539 1540 1540 1541 1542 1542 1542 1542 1543 1543 1543 1543 1542 1541 1541 1540 1539
1474 1479 1483 1487 1490 1494 1498 1501 1504 1507 1510 1512 1514 1516 1519 1521 1524 1526 1528 1530 1532 1533 1535 1536 1537 1539 1540 1540 1541 1542 1542 1543 1543 1543 1543 1544 1544 1543 1543 1542 1541 1540 1539
1469 1475 1479 1484 1488 1492 1495 1499 1502 1505 1508 1511 1513 1515 1518 1520 1523 1525 1527 1529 1531 1533 1534 1536 1537 1539 1540 1541 1542 1542 1543 1543 1544 1544 1544 1544 1544 1544 1543 1542 1542 1541 1540
1468 1472 1476 1481 1485 1490 1493 1496 1500 1503 1506 1508 1511 1514 1516 1519 1522 1524 1526 1529 1531 1532 1534 1536 1538 1539 1540 1541 1542 1542 1543 1544 1544 1544 1544 1544 1544 1544 1544 1543 1542 1541 1540
1464 1469 1473 1478 1482 1487 1491 1494 1497 1501 1504 1507 1510 1513 1515 1518 1521 1523 1526 1528 1530 1532 1534 1536 1538 1539 1540 1541 1542 1543 1543 1544 1544 1545 1545 1545 1545 1544 1544 1544 1543 1542 1541
1461 1465 1470 1475 1479 1484 1487 1491 1495 1498 1502 1505 1508 1511 1514 1517 1519 1522 1524 1527 1529 1532 1534 1536 1537 1539 1540 1541 1542 1543 1544 1544 1544 1545 1545 1545 1545 1544 1544 1544 1543 1542 1541
1457 1462 1466 1471 1476 1480 1484 1489 1493 1496 1500 1503 1506 1509 1512 1515 1518 1521 1523 1526 1528 1531 1533 1535 1537 1539 1540 1541 1542 1543 1543 1544 1544 1544 1544 1545 1544 1544 1544 1543 1543 1542 1541
1453 1458 1463 1468 1472 1477 1481 1486 1490 1494 1497 1501 1504 1507 1510 1513 1516 1519 1522 1524 1527 1530 1532 1534 1536 1538 1539 1540 1541 1542 1543 1543 1544 1544 1544 1544 1544 1544 1543 1543 1542 1541 1540
1449 1454 1458 1463 1467 1473 1478 1483 1487 1491 1495 1498 1501 1505 1508 1511 1514 1517 1520 1523 1526 1528 1531 1533 1535 1537 1538 1539 1540 1541 1542 1542 1543 1543 1543 1543 1543 1543 1542 1542 1541 1540 1539
1445 1449 1454 1459 1463 1469 1475 1480 1484 1488 1492 1495 1498 1501 1505 1508 1512 1515 1518 1521 1524 1526 1529 1531 1533 1535 1537 1538 1539 1540 1541 1541 1541 1541 1541 1541 1541 1541 1541 1541 1540 1539 1538
1441 1444 1449 1454 1459 1464 1469 1473 1477 1481 1486 1490 1494 1498 1502 1505 1508 1512 1515 1518 1521 1523 1526 1529 1531 1533 1535 1536 1538 1539 1539 1539 1539 1539 1539 1539 1540 1539 1539 1539 1538 1537 1536
1433 1438 1442 1447 1452 1457 1462 1466 1471 1476 1481 1486 1490 1494 1498 1502 1505 1508 1511 1514 1517 1521 1523 1526 1528 1530 1532 1534 1535 1536 1537 1538 1536 1537 1537 1537 1537 1537 1537 1536 1536 1535 1534
1426 1430 1435 1440 1445 1450 1456 1462 1469 1474 1479 1483 1486 1489 1493 1497 1501 1504 1508 1511 1514 1517 1520 1522 1525 1527 1528 1531 1532 1534 1534 1533 1534 1534 1534 1535 1535 1535 1535 1534 1533 1532 1531
1417 1423 1428 1433 1438 1444 1450 1455 1460 1464 1468 1471 1477 1482 1488 1492 1496 1500 1504 1507 1510 1513 1516 1519 1521 1524 1526 1527 1529 1530 1532 1531 1532 1531 1532 1532 1532 1532 1532 1531 1530 1530 1528
1410 1416 1421 1426 1431 1437 1443 1447 1453 1457 1462 1468 1473 1478 1483 1488 1492 1496 1499 1503 1506 1509 1512 1515 1517 1520 1522 1523 1525 1526 1528 1528 1529 1529 1528 1529 1529 1529 1528 1528 1527 1526 1525
1403 1408 1413 1418 1424 1430 1435 1440 1445 1450 1456 1462 1467 1472 1477 1482 1486 1490 1494 1498 1501 1504 1507 1510 1513 1516 1518 1520 1522 1523 1524 1525 1525 1526 1526 1525 1525 1526 1525 1525 1524 1523 1521